Temperature
4 5 5 6 6 7 8 8 8 8 8 8 9 9 9 9 9 9 9 9 9 9 9 9 9 9 10 10 10 10 10 10 10 10 10 10 10 10
4 4 4 5 6 7 8 8 8 8 8 8 8 8 8 8 8 8 8 8 8 9 9 9 9 9 9 9 9 9 9 9 9 9 9 9 9 10
3 3 4 4 5 6 6 7 7 7 7 7 7 8 8 8 8 7 7 7 8 8 8 8 8 8 8 8 8 8 8 8 8 8 8 8 8 8
1 2 3 3 3 4 5 6 6 6 6 6 6 7 7 7 7 7 7 7 7 7 7 7 7 7 7 7 7 7 7 7 7 7 7 7 7 8
-0 0 1 1 2 3 4 4 5 5 6 6 6 6 6 7 7 6 6 6 6 6 6 6 7 7 7 6 6 6 6 6 6 7 7 6 6 7
-2 -1 -1 -0 0 1 2 3 3 4 4 5 5 5 5 6 6 6 6 6 6 6 6 6 6 6 6 6 6 6 6 6 6 5 5 5 5 6
-3 -3 -2 -1 -1 -0 0 1 1 2 2 3 3 4 4 5 5 6 6 6 6 6 5 5 5 5 5 5 5 5 5 5 5 5 5 5 4 4
-5 -5 -4 -3 -2 -1 -1 -1 -0 1 1 1 2 3 3 4 4 5 5 5 5 5 5 5 4 5 5 5 4 4 4 4 4 4 4 4 4 3
-7 -6 -6 -5 -3 -3 -2 -2 -2 -1 -0 0 1 1 2 2 3 3 3 4 4 4 4 4 4 4 4 4 4 4 3 3 3 3 3 3 3 3
-9 -8 -8 -7 -6 -5 -5 -4 -4 -3 -2 -2 -1 -1 -0 0 1 2 2 2 3 3 3 3 2 2 2 3 3 2 2 2 2 2 2 2 2 2
-9 -9 -8 -8 -8 -7 -6 -6 -5 -5 -5 -4 -4 -3 -3 -2 -1 -0 1 1 2 2 2 2 1 1 1 1 1 1 1 1 1 1 1 1 1 1
-9 -9 -9 -9 -9 -8 -8 -7 -7 -7 -6 -6 -5 -5 -5 -4 -3 -2 -2 -1 -0 -0 -0 0 0 0 -0 -0 -0 -0 -0 -0 -0 0 0 0 1 1
-10 -10 -9 -9 -10 -10 -9 -9 -9 -8 -8 -8 -7 -7 -7 -6 -5 -4 -4 -3 -3 -3 -2 -2 -1 -1 -2 -2 -3 -2 -2 -2 -1 -1 -1 -0 -0 -0
-10 -10 -10 -10 -10 -11 -10 -10 -10 -10 -9 -9 -9 -8 -8 -8 -7 -6 -6 -5 -5 -5 -5 -4 -4 -4 -4 -5 -5 -4 -3 -3 -2 -2 -1 -1 -1 -1
-10 -10 -11 -11 -11 -11 -11 -11 -10 -10 -10 -10 -10 -9 -9 -9 -8 -8 -8 -7 -7 -7 -7 -7 -6 -6 -6 -6 -5 -5 -4 -3 -3 -2 -2 -2 -2 -2
-11 -11 -11 -12 -12 -12 -12 -12 -11 -11 -11 -11 -11 -11 -10 -10 -10 -9 -9 -9 -8 -8 -7 -7 -7 -6 -6 -6 -5 -5 -5 -4 -4 -4 -4 -3 -3 -3
-11 -12 -12 -12 -12 -13 -13 -13 -13 -12 -12 -12 -12 -12 -11 -11 -10 -10 -10 -9 -9 -9 -9 -8 -7 -7 -7 -6 -6 -6 -6 -6 -6 -5 -5 -4 -3 -4
-13 -13 -13 -13 -14 -14 -14 -14 -14 -14 -14 -14 -13 -13 -12 -12 -12 -11 -11 -10 -10 -10 -10 -9 -9 -9 -9 -8 -8 -7 -7 -7 -7 -7 -7 -5 -3 -4
-14 -14 -14 -14 -15 -15 -15 -15 -15 -15 -15 -15 -15 -14 -14 -14 -13 -13 -12 -12 -12 -11 -11 -11 -10 -10 -9 -9 -10 -9 -9 -9 -9 -8 -7 -7 -5 -4
-15 -15 -15 -15 -15 -15 -16 -16 -16 -16 -16 -16 -16 -16 -15 -15 -15 -14 -14 -13 -13 -13 -12 -12 -12 -12 -12 -11 -10 -10 -10 -10 -9 -8 -8 -7 -6 -5
-15 -15 -15 -16 -16 -16 -16 -16 -16 -16 -16 -16 -16 -16 -16 -16 -16 -15 -15 -15 -14 -14 -13 -13 -14 -13 -13 -12 -12 -10 -10 -11 -11 -10 -9 -8 -7 -5
-15 -15 -15 -15 -16 -16 -16 -16 -16 -16 -16 -16 -16 -16 -16 -16 -16 -16 -15 -15 -15 -15 -14 -14 -14 -14 -13 -13 -12 -12 -11 -10 -10 -10 -10 -10 -10 -9
-15 -15 -15 -15 -15 -16 -16 -16 -16 -16 -16 -16 -16 -16 -16 -16 -16 -16 -15 -15 -15 -15 -15 -15 -14 -14 -14 -13 -13 -13 -12 -12 -11 -10 -9 -10 -10 -10
Wind_Speed
10 9 8 6 6 5 5 5 7 5 5 4 2 1 2 5 12 11 12 18 20 21 22 21 19 18 18 18 17 16 15 15 14 12 12 11 11 11
6 6 5 4 4 4 4 4 4 5 5 5 4 1 2 4 10 11 13 20 20 21 21 21 21 19 18 18 17 16 15 14 13 12 11 11 11 11
3 3 3 3 4 4 5 5 4 4 4 2 1 1 3 5 6 7 10 12 15 20 21 21 20 19 18 17 17 16 15 13 12 11 10 10 9 9
3 2 3 2 3 3 4 6 5 5 4 3 2 2 3 3 5 6 4 9 11 19 21 21 20 18 17 16 16 15 14 13 12 11 9 8 7 6
9 7 6 5 5 4 4 5 4 4 4 4 2 2 3 2 4 3 4 3 5 14 20 20 20 19 18 17 15 14 14 14 12 10 8 6 5 4
12 12 11 9 6 6 5 5 4 4 4 4 3 3 2 2 3 4 4 3 3 3 10 14 16 16 15 14 14 14 13 12 11 9 8 8 7 5
15 14 15 17 16 8 5 4 4 3 3 4 4 3 2 2 2 2 3 4 4 2 3 3 4 5 7 11 14 15 14 13 12 11 11 10 9 7
13 13 13 16 18 20 20 17 13 7 3 2 2 4 3 2 2 2 4 4 3 2 3 3 3 4 4 8 15 17 17 16 14 12 11 10 8 7
12 11 11 13 16 13 17 20 20 22 17 5 4 4 3 2 2 3 3 3 3 3 2 3 3 5 5 13 18 18 17 15 13 12 10 9 8 7
11 11 11 11 12 13 12 13 13 14 14 12 10 9 8 7 6 3 4 7 6 5 4 3 3 4 6 10 15 17 15 14 12 10 8 7 7 7
10 10 9 9 16 16 12 11 11 12 19 23 24 22 23 20 12 5 4 4 3 4 6 3 3 3 4 6 11 14 13 12 10 9 8 7 7 8
8 10 14 15 19 18 11 9 10 9 10 13 16 18 17 18 20 12 7 5 4 4 6 3 3 3 3 3 4 9 10 10 9 9 8 7 8 7
6 7 8 19 20 19 15 10 11 10 10 11 11 11 11 11 12 11 10 7 6 5 5 4 3 3 3 3 2 3 5 4 5 7 9 9 9 7
3 4 8 19 20 19 15 15 16 13 8 9 10 10 10 9 9 9 12 13 12 9 8 6 3 2 2 2 2 2 2 4 4 4 7 9 9 9
1 7 13 17 16 14 17 18 14 9 8 9 9 8 8 7 7 7 8 9 12 14 14 12 6 3 2 2 2 1 1 1 3 3 4 4 4 5
5 11 16 17 14 13 13 11 9 9 8 8 7 7 6 7 8 7 6 5 5 7 10 12 10 5 2 1 1 0 1 2 2 3 3 3 5 8
8 7 7 7 7 7 7 8 8 8 8 7 7 7 7 7 7 7 6 6 5 4 5 6 8 6 2 1 0 0 1 1 2 3 4 5 4 5
11 8 8 7 7 6 6 6 6 6 6 6 6 6 5 5 5 5 5 5 5 4 4 5 6 4 3 2 1 1 1 1 2 3 4 4 5 4
9 7 6 6 5 4 4 3 3 3 3 3 3 3 3 3 3 4 4 4 4 3 4 4 5 4 3 2 4 4 3 3 5 5 4 4 6 9
5 5 4 4 4 4 4 3 3 2 2 2 2 2 2 2 2 2 2 2 2 2 2 2 3 3 2 3 3 3 6 5 4 6 6 7 7 10
4 3 3 3 2 3 3 3 3 2 2 2 1 1 1 1 1 2 2 3 2 1 2 2 2 6 4 2 4 4 3 5 7 6 7 8 7 5
3 3 3 3 3 2 2 2 2 3 2 2 2 3 2 2 3 3 3 2 2 2 3 3 3 2 1 3 5 6 5 5 9 12 11 10 7 5
4 4 4 4 4 3 3 3 3 4 4 4 4 4 3 3 4 4 4 4 4 4 3 3 2 2 3 4 5 6 8 9 8 7 7 12 15 20
Wind_Direction
253 242 234 219 203 191 163 155 153 167 210 226 225 201 156 153 159 151 147 147 144 141 138 136 136 138 136 132 129 126 122 116 109 102 94 87 77 63
246 218 206 199 185 170 148 131 132 145 182 211 202 170 151 147 164 154 153 152 149 147 145 142 143 143 138 135 131 128 125 120 114 109 102 94 84 70
270 200 164 159 153 134 129 124 119 126 144 177 123 116 130 147 148 148 152 149 154 153 152 150 148 147 144 140 138 137 134 128 120 113 107 100 89 73
15 47 67 75 87 109 120 124 129 125 133 151 138 97 97 151 147 149 150 158 158 162 160 158 156 155 154 150 149 146 141 135 128 122 118 110 94 74
26 34 49 72 67 64 76 94 107 118 122 136 134 87 78 86 124 122 131 133 162 172 167 166 165 164 163 161 159 155 150 146 144 140 136 129 114 89
23 28 34 43 58 65 67 70 87 107 125 131 128 110 93 63 118 134 125 105 100 142 168 170 172 168 168 167 163 157 153 149 143 134 126 121 115 100
20 24 30 32 36 54 75 67 78 96 124 141 139 132 114 91 111 123 133 115 65 48 115 105 126 115 122 140 142 140 136 127 118 112 108 101 92 78
20 20 26 31 28 38 54 58 60 62 77 109 124 128 102 80 60 88 130 136 132 19 95 64 70 92 95 111 125 122 117 111 106 99 94 84 72 54
26 24 29 32 37 37 42 43 43 45 47 55 72 86 98 73 78 77 73 91 102 11 52 87 66 75 76 104 110 109 105 99 92 85 76 65 48 22
23 26 32 36 49 53 51 48 44 46 54 54 57 56 67 67 62 72 96 101 86 37 9 107 94 81 69 73 95 98 93 87 82 76 63 47 29 13
17 20 37 46 60 62 58 54 47 42 54 63 63 57 55 55 54 57 62 104 100 48 16 66 88 86 75 56 65 80 80 79 79 73 59 41 32 26
18 13 38 64 68 65 59 59 59 54 59 60 59 55 51 49 51 47 43 58 84 74 16 42 69 88 93 66 50 53 59 64 70 63 52 35 19 17
34 23 39 67 64 60 59 60 77 75 65 64 61 55 50 45 43 45 47 52 73 72 22 29 66 69 96 114 98 55 46 46 58 53 39 26 16 8
49 36 61 68 64 62 59 58 65 66 62 62 59 53 48 42 39 44 57 66 72 74 50 46 70 71 103 111 113 56 30 49 56 48 25 15 9 358
44 104 90 75 65 56 58 61 58 56 60 63 61 54 47 42 37 43 49 70 72 65 57 54 60 74 82 108 113 88 359 6 36 35 11 359 338 334
59 84 82 78 73 65 60 56 55 64 65 61 61 54 48 47 43 37 38 40 68 61 50 48 44 45 68 98 137 195 269 313 5 8 345 317 312 312
83 73 66 65 63 62 63 61 57 55 58 54 52 51 47 46 43 37 38 41 54 42 31 24 19 12 340 249 307 313 2 1 12 4 341 319 295 290
62 56 55 54 53 52 55 56 54 55 54 57 57 53 48 44 45 40 47 46 52 42 31 19 14 9 19 64 92 19 46 1 325 326 331 317 307 300
55 50 42 35 31 30 32 38 43 49 50 50 51 37 33 36 42 45 42 39 39 39 31 19 17 23 32 7 350 39 30 337 319 316 318 311 301 305
37 39 32 24 18 12 8 8 12 20 36 40 34 20 13 8 16 28 32 27 16 17 23 18 14 12 5 335 313 295 313 307 318 321 318 314 295 291
2 1 358 354 354 358 356 356 351 341 343 339 318 307 299 286 301 319 320 325 351 5 323 312 301 331 328 290 272 270 268 296 313 307 310 314 310 295
324 318 314 313 312 309 306 312 314 304 302 286 278 280 274 256 256 265 265 264 260 256 263 275 289 303 261 256 274 287 296 304 314 309 292 277 282 295
301 296 290 292 293 287 275 267 266 269 265 256 255 257 253 248 248 250 255 255 257 260 263 273 266 234 246 256 271 281 285 298 310 311 298 293 287 282
Height
1397 1399 1399 1402 1405 1408 1411 1414 1418 1421 1426 1429 1432 1435 1437 1441 1444 1448 1451 1455 1459 1462 1465 1469 1474 1479 1482 1485 1489 1492 1495 1497 1499 1502 1503 1504 1506 1507
1390 1391 1392 1394 1398 1401 1404 1407 1411 1416 1421 1425 1428 1431 1434 1438 1442 1446 1450 1454 1457 1460 1463 1467 1471 1476 1478 1481 1484 1488 1490 1493 1495 1497 1499 1500 1501 1503
1384 1385 1386 1389 1391 1394 1397 1401 1406 1411 1416 1421 1425 1428 1431 1435 1439 1443 1448 1451 1455 1458 1461 1464 1468 1472 1475 1477 1481 1484 1487 1489 1491 1493 1495 1496 1497 1498
1381 1380 1381 1383 1385 1389 1393 1397 1401 1406 1412 1417 1422 1425 1429 1433 1436 1440 1445 1449 1452 1455 1459 1462 1465 1469 1472 1475 1478 1481 1484 1486 1487 1489 1491 1493 1494 1495
1379 1377 1377 1379 1381 1385 1389 1393 1398 1402 1408 1413 1418 1422 1426 1430 1433 1438 1442 1446 1450 1453 1457 1460 1463 1466 1469 1472 1475 1478 1480 1482 1485 1487 1488 1489 1490 1491
1378 1377 1376 1377 1379 1383 1386 1390 1394 1399 1404 1408 1413 1418 1422 1426 1430 1434 1438 1442 1446 1451 1454 1457 1461 1464 1466 1469 1472 1475 1477 1480 1482 1483 1484 1485 1486 1487
1380 1378 1377 1377 1379 1382 1385 1388 1391 1395 1399 1403 1408 1412 1417 1421 1425 1429 1433 1437 1442 1446 1449 1453 1456 1459 1463 1466 1469 1472 1474 1476 1478 1479 1481 1482 1483 1483
1384 1382 1379 1379 1380 1382 1384 1386 1389 1392 1395 1399 1403 1407 1411 1415 1420 1424 1428 1432 1435 1440 1444 1448 1453 1455 1458 1461 1464 1467 1470 1472 1474 1476 1477 1478 1479 1479
1386 1384 1382 1381 1381 1382 1384 1386 1388 1390 1392 1395 1399 1402 1406 1410 1414 1418 1422 1426 1430 1433 1438 1441 1446 1450 1453 1457 1460 1462 1465 1467 1470 1471 1472 1473 1474 1475
1390 1388 1386 1384 1384 1385 1386 1388 1389 1390 1391 1393 1396 1399 1402 1405 1410 1414 1417 1421 1426 1429 1432 1434 1439 1443 1447 1451 1454 1457 1460 1462 1464 1466 1467 1468 1469 1469
1395 1393 1391 1389 1388 1388 1389 1390 1391 1392 1392 1394 1396 1398 1399 1402 1405 1409 1412 1417 1420 1424 1427 1430 1433 1438 1442 1445 1448 1452 1455 1457 1459 1460 1462 1463 1463 1463
1398 1397 1396 1394 1392 1391 1391 1392 1393 1394 1394 1395 1396 1397 1399 1401 1403 1406 1408 1412 1415 1419 1423 1427 1429 1434 1438 1441 1444 1447 1449 1452 1453 1454 1455 1456 1456 1456
1400 1400 1399 1398 1396 1396 1395 1394 1394 1395 1395 1396 1397 1398 1400 1402 1403 1405 1407 1410 1413 1416 1420 1423 1426 1430 1433 1437 1440 1443 1445 1447 1448 1448 1449 1449 1449 1449
1403 1402 1402 1401 1400 1399 1398 1397 1397 1397 1397 1398 1399 1401 1402 1404 1405 1405 1407 1409 1412 1415 1418 1421 1424 1428 1431 1433 1436 1439 1441 1442 1442 1442 1442 1443 1443 1443
1404 1403 1402 1401 1401 1401 1400 1400 1400 1400 1400 1400 1401 1402 1404 1405 1406 1406 1408 1410 1412 1414 1416 1419 1422 1425 1428 1430 1432 1435 1436 1436 1436 1436 1437 1438 1438 1438
1404 1403 1402 1403 1403 1403 1403 1402 1402 1402 1402 1402 1402 1404 1405 1406 1406 1407 1408 1410 1412 1413 1415 1417 1419 1422 1424 1426 1428 1429 1430 1431 1431 1431 1431 1432 1433 1432
1403 1403 1404 1405 1405 1405 1404 1404 1403 1403 1403 1403 1404 1405 1406 1406 1406 1407 1408 1410 1411 1412 1413 1415 1417 1419 1421 1422 1423 1424 1425 1426 1426 1425 1426 1426 1428 1427
1406 1405 1406 1407 1407 1406 1406 1405 1405 1404 1404 1405 1405 1405 1406 1406 1406 1406 1407 1408 1409 1410 1412 1413 1414 1416 1417 1418 1420 1420 1421 1422 1422 1422 1420 1420 1420 1422
1408 1408 1408 1408 1408 1408 1407 1407 1406 1406 1405 1405 1405 1405 1405 1405 1405 1405 1406 1407 1407 1409 1409 1410 1411 1412 1414 1416 1416 1418 1418 1418 1417 1417 1416 1415 1414 1415
1411 1410 1410 1409 1409 1408 1407 1407 1406 1406 1406 1405 1405 1405 1405 1405 1405 1404 1405 1405 1406 1407 1408 1408 1409 1409 1411 1412 1413 1415 1416 1414 1412 1411 1410 1409 1409 1410
1413 1412 1411 1410 1409 1408 1407 1406 1406 1405 1405 1405 1404 1404 1403 1403 1403 1403 1403 1403 1404 1405 1405 1406 1406 1407 1407 1408 1409 1409 1411 1410 1408 1406 1405 1404 1403 1403
1415 1414 1412 1411 1409 1407 1406 1405 1405 1404 1403 1403 1402 1401 1401 1400 1400 1400 1401 1401 1401 1402 1403 1403 1404 1404 1404 1404 1404 1404 1404 1405 1404 1404 1403 1402 1400 1397
1415 1414 1412 1410 1408 1406 1405 1404 1403 1402 1401 1401 1400 1399 1399 1398 1398 1398 1398 1398 1398 1399 1399 1400 1400 1400 1400 1400 1400 1400 1400 1399 1399 1399 1401 1400 1398 1396